Change the Weather History Date:

Monday, October 6, 2014

  Actual Average Record
Temperature  
Mean Temperature 66 °F 53 °F  
Max Temperature 86 °F 68 °F 86 °F (2014)
Min Temperature 45 °F 39 °F 30 °F (1997)
Degree Days  
Heating Degree Days 0 12  
Month to date heating degree days 37 63  
Since 1 July heating degree days 89 213  
Cooling Degree Days 1 0  
Month to date cooling degree days 1 0  
Year to date cooling degree days 949 614  
Growing Degree Days 16 (Base 50)    
Moisture  
Dew Point 48 °F    
Average Humidity 58    
Maximum Humidity 86    
Minimum Humidity 29    
Precipitation  
Precipitation 0.00 in 0.02 in 0.10 in (1981)
Month to date precipitation 0.00 0.09  
Year to date precipitation 4.18 5.91  
Sea Level Pressure  
Sea Level Pressure 29.93 in    
Wind  
Wind Speed 6 mph (SW)    
Max Wind Speed 15 mph    
Max Gust Speed 18 mph    
Visibility 10 miles    
Events      
T = Trace of Precipitation, MM = Missing Value Source: NWS Daily Summary

Daily Weather History Graph

Daily Weather History Graph

Search for Another Location

Airport or City:

Trip Planner

Search our weather history database for the weather conditions in past years. The results will help you decide how hot, cold, wet, or windy it might be!

Date:

Astronomy

Oct. 06, 2014 Rise Set
Actual Time 7:03 AM PDT 6:26 PM PDT
Civil Twilight 6:32 AM PDT 6:57 PM PDT
Nautical Twilight 5:57 AM PDT 7:32 PM PDT
Astronomical Twilight 5:21 AM PDT 8:08 PM PDT
Moon 5:31 PM PDT (10/6) 4:48 AM PDT (10/6)
Length of Visible Light 12h 24m
Length of Day
11h 23m
Waxing Gibbous, 96% of the Moon is Illuminated
Oct 6
Waxing Gibbous
Oct 8
Full
Oct 15
Last Quarter
Oct 23
New
Oct 30
First Quarter

Hourly Weather History & Observations

Time (PDT) Temp. Windchill Dew Point Humidity Pressure Visibility Wind Dir Wind Speed Gust Speed Precip Events Conditions
12:52 AM 53.1 °F - 46.0 °F 77% 29.99 in 10.0 mi NNE 3.5 mph - N/A   Clear
1:52 AM 52.0 °F - 44.1 °F 74% 29.99 in 10.0 mi NNW 3.5 mph - N/A   Clear
2:52 AM 50.0 °F - 44.1 °F 80% 29.98 in 10.0 mi Calm Calm - N/A   Clear
3:52 AM 48.0 °F - 42.1 °F 80% 29.97 in 10.0 mi North 4.6 mph - N/A   Clear
4:52 AM 46.9 °F - 43.0 °F 86% 29.97 in 10.0 mi North 4.6 mph - N/A   Clear
5:52 AM 46.0 °F 42.5 °F 42.1 °F 86% 29.98 in 10.0 mi North 6.9 mph - N/A   Clear
6:52 AM 46.9 °F - 42.1 °F 83% 29.99 in 10.0 mi North 3.5 mph - N/A   Clear
7:52 AM 50.0 °F - 42.8 °F 76% 29.99 in 10.0 mi Calm Calm - N/A   Clear
8:52 AM 57.0 °F - 45.0 °F 64% 29.99 in 10.0 mi Calm Calm - N/A   Clear
9:52 AM 62.1 °F - 46.9 °F 58% 30.00 in 10.0 mi Calm Calm - N/A   Partly Cloudy
10:52 AM 69.1 °F - 48.9 °F 49% 29.98 in 10.0 mi South 5.8 mph - N/A   Clear
11:52 AM 73.9 °F - 51.1 °F 45% 29.96 in 10.0 mi SSW 5.8 mph - N/A   Clear
12:52 PM 82.0 °F - 50.0 °F 33% 29.93 in 10.0 mi SSW 9.2 mph - N/A   Clear
1:52 PM 84.0 °F - 50.0 °F 31% 29.90 in 10.0 mi SSW 11.5 mph - N/A   Clear
2:52 PM 84.9 °F - 48.9 °F 29% 29.88 in 10.0 mi SSW 12.7 mph - N/A   Clear
3:52 PM 86.0 °F - 51.1 °F 30% 29.87 in 10.0 mi South 11.5 mph - N/A   Clear
4:52 PM 86.0 °F - 51.1 °F 30% 29.85 in 10.0 mi South 12.7 mph - N/A   Clear
5:52 PM 82.9 °F - 52.0 °F 34% 29.84 in 10.0 mi South 12.7 mph - N/A   Clear
6:52 PM 79.0 °F - 53.1 °F 40% 29.85 in 10.0 mi South 12.7 mph - N/A   Clear
7:52 PM 75.0 °F - 54.0 °F 48% 29.86 in 10.0 mi SSW 9.2 mph - N/A   Clear
8:52 PM 73.0 °F - 52.0 °F 48% 29.86 in 10.0 mi WSW 4.6 mph - N/A   Clear
9:52 PM 69.1 °F - 48.9 °F 49% 29.86 in 10.0 mi NW 6.9 mph - N/A   Clear
10:52 PM 64.9 °F - 51.1 °F 61% 29.87 in 10.0 mi Calm Calm - N/A   Clear
11:52 PM 64.9 °F - 51.1 °F 61% 29.88 in 10.0 mi WSW 3.5 mph - N/A   Clear